Location: Partizánske
(48.6285°N, 18.3769°E)
Time: 03:59:53
(UTC+01:00)

ISS - Pass Details

Date: 05 December 2021
Orbit: 413 x 422 km, 51.6° (Epoch: 27 January)

Event Time Altitude Azimuth Distance (km) Brightness Sun altitude
Rises 18:37:30 0° 285° (WNW) 2,384 1.2 -26.4°
Reaches altitude 10° 18:40:06 10° 265° (W) 1,512 0.1 -26.9°
Enters shadow 18:42:19 17° 224° (SW) 1,145 -1.1 -27.2°
